| time (UTC) | temp C | wind direction | speed KPH | gust KPH | rain 1hr cm | rain 24hr cm | rain mn cm | humidity % | barometer mb |
| 20260902192606 | 26 | 164 | 3.2 | 4.8 | 0.00 | 0.00 | 0.00 | 85 | 980.8 |
| 20260902192106 | 26 | 182 | 3.2 | 4.8 | 0.00 | 0.00 | 0.00 | 89 | 980.8 |
| 20260902191605 | 25 | 155 | 3.2 | 4.8 | 0.00 | 0.00 | 0.00 | 90 | 980.8 |
| 20260902191105 | 25 | 156 | 3.2 | 6.4 | 0.00 | 0.00 | 0.00 | 92 | 980.9 |
| 20260902190605 | 25 | 181 | 4.8 | 6.4 | 0.00 | 0.00 | 0.00 | 93 | 981.0 |
| 20260902190104 | 24 | 171 | 3.2 | 4.8 | 0.00 | 0.00 | 0.00 | 95 | 981.0 |
| 20260902185604 | 23 | 181 | 4.8 | 6.4 | 0.00 | 0.00 | 0.00 | 95 | 981.2 |
| 20260902185104 | 23 | 183 | 4.8 | 4.8 | 0.00 | 0.00 | 0.00 | 95 | 981.3 |
| 20260902183521 | 22 | 183 | 3.2 | 4.8 | 0.00 | 0.00 | 0.00 | 95 | 981.6 |
| 20260902183021 | 22 | 180 | 3.2 | 4.8 | 0.00 | 0.00 | 0.00 | 95 | 981.5 |
| 20260902182521 | 22 | 189 | 1.6 | 3.2 | 0.00 | 0.00 | 0.00 | 95 | 981.4 |
| 20260902182020 | 22 | 176 | 4.8 | 4.8 | 0.00 | 0.00 | 0.00 | 95 | 981.5 |
| 20260902181520 | 23 | 188 | 3.2 | 4.8 | 0.00 | 0.00 | 0.00 | 95 | 981.8 |
| 20260902181020 | 23 | 351 | 3.2 | 6.4 | 0.00 | 0.00 | 0.00 | 94 | 982.0 |
| 20260902180520 | 25 | 159 | 4.8 | 11.3 | 0.00 | 0.00 | 0.00 | 90 | 981.5 |
| 20260902180020 | 28 | 53 | 12.9 | 20.9 | 0.00 | 0.00 | 0.00 | 79 | 982.0 |
| 20260902175519 | 28 | 261 | 1.6 | 3.2 | 0.00 | 0.00 | 0.00 | 86 | 981.1 |
| 20260902175019 | 28 | 261 | 3.2 | 4.8 | 0.00 | 0.00 | 0.00 | 85 | 981.4 |
| 20260902174519 | 28 | 260 | 6.4 | 12.9 | 0.00 | 0.00 | 0.00 | 85 | 981.2 |
| 20260902174018 | 28 | 267 | 6.4 | 9.7 | 0.00 | 0.00 | 0.00 | 85 | 981.1 |
| 20260902173518 | 28 | 270 | 9.7 | 12.9 | 0.00 | 0.00 | 0.00 | 84 | 981.3 |
| 20260902171935 | 28 | 264 | 9.7 | 16.1 | 0.00 | 0.00 | 0.00 | 85 | 981.6 |
| 20260902170913 | 28 | 245 | 1.6 | 4.8 | 0.00 | 0.00 | 0.00 | 85 | 981.9 |
| 20260902170413 | 27 | 275 | 8.0 | 11.3 | 0.00 | 0.00 | 0.00 | 86 | 981.9 |
| 20260902165913 | 27 | 266 | 6.4 | 9.7 | 0.00 | 0.00 | 0.00 | 88 | 982.0 |
| 20260902164852 | 27 | 279 | 6.4 | 12.9 | 0.00 | 0.00 | 0.00 | 87 | 982.1 |
| 20260902164351 | 27 | 261 | 6.4 | 9.7 | 0.00 | 0.00 | 0.00 | 89 | 982.2 |
| 20260902163851 | 27 | 276 | 12.9 | 17.7 | 0.00 | 0.00 | 0.00 | 90 | 982.2 |
| 20260902163351 | 27 | 267 | 4.8 | 9.7 | 0.00 | 0.00 | 0.00 | 89 | 982.4 |
| 20260902162851 | 27 | 228 | 4.8 | 6.4 | 0.00 | 0.00 | 0.00 | 89 | 982.4 |
| 20260902162350 | 27 | 273 | 4.8 | 9.7 | 0.00 | 0.00 | 0.00 | 88 | 982.3 |
| 20260902161850 | 27 | 202 | 6.4 | 11.3 | 0.00 | 0.00 | 0.00 | 88 | 982.4 |
| 20260902161350 | 27 | 284 | 4.8 | 11.3 | 0.00 | 0.00 | 0.00 | 89 | 982.4 |
| 20260902160850 | 27 | 232 | 4.8 | 8.0 | 0.00 | 0.00 | 0.00 | 88 | 982.5 |
| 20260902160350 | 26 | 254 | 6.4 | 14.5 | 0.00 | 0.00 | 0.00 | 90 | 982.5 |
| 20260902155850 | 26 | 278 | 8.0 | 12.9 | 0.00 | 0.00 | 0.00 | 91 | 982.5 |
| 20260902155348 | 26 | 240 | 3.2 | 8.0 | 0.00 | 0.00 | 0.00 | 91 | 982.5 |
| 20260902154848 | 26 | 220 | 4.8 | 8.0 | 0.00 | 0.00 | 0.00 | 90 | 982.5 |
| 20260902154348 | 26 | 270 | 6.4 | 8.0 | 0.00 | 0.00 | 0.00 | 89 | 982.4 |
| 20260902152805 | 26 | 256 | 6.4 | 12.9 | 0.00 | 0.00 | 0.00 | 90 | 982.7 |
| 20260902152307 | 25 | 240 | 4.8 | 8.0 | 0.00 | 0.00 | 0.00 | 92 | 982.8 |
| 20260902151804 | 25 | 235 | 3.2 | 6.4 | 0.00 | 0.00 | 0.00 | 91 | 982.8 |
| 20260902151304 | 25 | 242 | 3.2 | 9.7 | 0.00 | 0.00 | 0.00 | 91 | 982.9 |
| 20260902150242 | 25 | 262 | 6.4 | 12.9 | 0.00 | 0.00 | 0.00 | 91 | 982.8 |
| 20260902145742 | 25 | 283 | 4.8 | 8.0 | 0.00 | 0.00 | 0.00 | 91 | 982.8 |
| 20260902145242 | 25 | 168 | 1.6 | 3.2 | 0.00 | 0.00 | 0.00 | 92 | 982.8 |
| 20260902144742 | 25 | 259 | 4.8 | 6.4 | 0.00 | 0.00 | 0.00 | 92 | 982.9 |
| 20260902144241 | 24 | 251 | 3.2 | 6.4 | 0.00 | 0.00 | 0.00 | 92 | 982.9 |
| 20260902143741 | 24 | 207 | 4.8 | 12.9 | 0.00 | 0.00 | 0.00 | 92 | 983.0 |
| 20260902143240 | 24 | 220 | 3.2 | 8.0 | 0.00 | 0.00 | 0.00 | 92 | 982.9 |
| 20260902142218 | 23 | 240 | 6.4 | 8.0 | 0.00 | 0.00 | 0.00 | 93 | 982.9 |
| 20260902141718 | 23 | 253 | 4.8 | 6.4 | 0.00 | 0.00 | 0.00 | 94 | 982.8 |
| 20260902141217 | 23 | 234 | 1.6 | 4.8 | 0.00 | 0.00 | 0.00 | 94 | 982.7 |
| 20260902140717 | 23 | 273 | 4.8 | 6.4 | 0.00 | 0.00 | 0.00 | 94 | 982.6 |
| 20260902140217 | 23 | 235 | 3.2 | 9.7 | 0.00 | 0.00 | 0.00 | 94 | 982.7 |
| 20260902135154 | 23 | 265 | 4.8 | 9.7 | 0.00 | 0.00 | 0.00 | 94 | 982.6 |
| 20260902134654 | 23 | 242 | 4.8 | 6.4 | 0.00 | 0.00 | 0.00 | 94 | 982.6 |
| 20260902134154 | 23 | 260 | 8.0 | 14.5 | 0.00 | 0.00 | 0.00 | 94 | 982.6 |
| 20260902133653 | 23 | 259 | 4.8 | 8.0 | 0.00 | 0.00 | 0.00 | 94 | 982.5 |
| 20260902133152 | 23 | 249 | 3.2 | 4.8 | 0.00 | 0.00 | 0.00 | 94 | 982.6 |
| 20260902132651 | 23 | 239 | 4.8 | 8.0 | 0.00 | 0.00 | 0.00 | 94 | 982.4 |
| 20260902131630 | 23 | 228 | 1.6 | 4.8 | 0.00 | 0.00 | 0.00 | 94 | 982.4 |
| 20260902131129 | 23 | 248 | 4.8 | 8.0 | 0.00 | 0.00 | 0.00 | 94 | 982.4 |
| 20260902130629 | 23 | 193 | 1.6 | 4.8 | 0.00 | 0.00 | 0.00 | 94 | 982.5 |
| 20260902130128 | 23 | 244 | 3.2 | 6.4 | 0.00 | 0.00 | 0.00 | 94 | 982.6 |
| 20260902124024 | 22 | 251 | 3.2 | 4.8 | 0.00 | 0.00 | 0.00 | 94 | 982.5 |
| 20260902123523 | 22 | 174 | 3.2 | 4.8 | 0.00 | 0.00 | 0.00 | 94 | 982.2 |
| 20260902123023 | 22 | 171 | 0.0 | 1.6 | 0.00 | 0.00 | 0.00 | 94 | 982.2 |
| 20260902122523 | 22 | 156 | 3.2 | 3.2 | 0.00 | 0.00 | 0.00 | 94 | 982.3 |
| 20260902122022 | 22 | 0 | 0.0 | 0.0 | 0.00 | 0.00 | 0.00 | 94 | 982.4 |
| 20260902121522 | 22 | 276 | 1.6 | 3.2 | 0.00 | 0.00 | 0.00 | 94 | 982.6 |
| 20260902121022 | 22 | 275 | 3.2 | 4.8 | 0.00 | 0.00 | 0.00 | 93 | 982.6 |
| 20260902120521 | 22 | 296 | 3.2 | 4.8 | 0.00 | 0.00 | 0.00 | 93 | 982.6 |
| 20260902120021 | 22 | 256 | 3.2 | 4.8 | 0.00 | 0.00 | 0.00 | 94 | 982.6 |
| 20260902115520 | 22 | 267 | 3.2 | 4.8 | 0.00 | 0.00 | 0.00 | 94 | 982.6 |
| 20260902115020 | 22 | 236 | 1.6 | 3.2 | 0.00 | 0.00 | 0.00 | 94 | 982.6 |
| 20260902113437 | 22 | 0 | 0.0 | 0.0 | 0.00 | 0.00 | 0.00 | 94 | 982.4 |
| 20260902112937 | 22 | 0 | 0.0 | 0.0 | 0.00 | 0.00 | 0.00 | 94 | 982.5 |
| 20260902112436 | 22 | 0 | 0.0 | 0.0 | 0.00 | 0.00 | 0.00 | 94 | 982.4 |
| 20260902111935 | 22 | 255 | 1.6 | 3.2 | 0.00 | 0.00 | 0.00 | 94 | 982.4 |
| 20260902111435 | 21 | 247 | 3.2 | 3.2 | 0.00 | 0.00 | 0.00 | 94 | 982.4 |
| 20260902110413 | 21 | 224 | 1.6 | 3.2 | 0.00 | 0.00 | 0.00 | 94 | 982.0 |
| 20260902105352 | 22 | 0 | 0.0 | 0.0 | 0.00 | 0.00 | 0.00 | 94 | 981.9 |
| 20260902104851 | 22 | 0 | 0.0 | 0.0 | 0.00 | 0.00 | 0.00 | 93 | 981.8 |
| 20260902103309 | 22 | 0 | 0.0 | 0.0 | 0.00 | 0.00 | 0.00 | 93 | 981.6 |
| 20260902102809 | 22 | 0 | 0.0 | 0.0 | 0.00 | 0.00 | 0.00 | 93 | 981.6 |
| 20260902101747 | 22 | 146 | 1.6 | 3.2 | 0.00 | 0.00 | 0.00 | 93 | 981.5 |
| 20260902101247 | 22 | 261 | 3.2 | 6.4 | 0.00 | 0.00 | 0.00 | 92 | 981.6 |
| 20260902100747 | 22 | 274 | 3.2 | 4.8 | 0.00 | 0.00 | 0.00 | 92 | 981.5 |
| 20260902100247 | 22 | 256 | 6.4 | 8.0 | 0.00 | 0.00 | 0.00 | 92 | 981.5 |
| 20260902095746 | 23 | 261 | 4.8 | 8.0 | 0.00 | 0.00 | 0.00 | 92 | 981.6 |
| 20260902094725 | 23 | 257 | 6.4 | 11.3 | 0.00 | 0.00 | 0.00 | 93 | 981.5 |
| 20260902094225 | 23 | 239 | 4.8 | 8.0 | 0.00 | 0.00 | 0.00 | 93 | 981.6 |
| 20260902093725 | 23 | 253 | 4.8 | 9.7 | 0.00 | 0.00 | 0.00 | 93 | 981.5 |
| 20260902093224 | 23 | 242 | 3.2 | 8.0 | 0.00 | 0.00 | 0.00 | 93 | 981.2 |
| 20260902092724 | 23 | 237 | 3.2 | 4.8 | 0.00 | 0.00 | 0.00 | 92 | 981.1 |
| 20260902092224 | 23 | 242 | 4.8 | 8.0 | 0.00 | 0.00 | 0.00 | 92 | 981.0 |
| 20260902091724 | 23 | 243 | 1.6 | 3.2 | 0.00 | 0.00 | 0.00 | 92 | 981.1 |
| 20260902091223 | 23 | 246 | 8.0 | 14.5 | 0.00 | 0.00 | 0.00 | 94 | 981.3 |
| 20260902090202 | 22 | 247 | 4.8 | 8.0 | 0.00 | 0.00 | 0.00 | 96 | 981.8 |
| 20260902085702 | 22 | 0 | 0.0 | 0.0 | 0.00 | 0.00 | 0.00 | 97 | 981.5 |
| 20260902085202 | 22 | 0 | 0.0 | 0.0 | 0.00 | 0.00 | 0.00 | 97 | 981.6 |
| 20260902084702 | 22 | 0 | 0.0 | 0.0 | 0.00 | 0.00 | 0.00 | 97 | 981.6 |
| 20260902083640 | 22 | 0 | 0.0 | 0.0 | 0.00 | 0.00 | 0.00 | 97 | 981.3 |
| 20260902083140 | 22 | 145 | 3.2 | 3.2 | 0.00 | 0.00 | 0.00 | 97 | 981.4 |
| 20260902082639 | 22 | 0 | 0.0 | 0.0 | 0.00 | 0.00 | 0.00 | 97 | 981.5 |
| 20260902082139 | 22 | 0 | 0.0 | 0.0 | 0.00 | 0.00 | 0.00 | 97 | 981.6 |
| 20260902081639 | 22 | 169 | 0.0 | 1.6 | 0.00 | 0.00 | 0.00 | 97 | 981.7 |
| 20260902081139 | 22 | 0 | 0.0 | 0.0 | 0.00 | 0.00 | 0.00 | 97 | 981.8 |
| 20260902080639 | 22 | 0 | 0.0 | 0.0 | 0.00 | 0.00 | 0.00 | 97 | 981.7 |
| 20260902080138 | 22 | 0 | 0.0 | 0.0 | 0.00 | 0.00 | 0.00 | 97 | 981.6 |
| 20260902075638 | 22 | 158 | 1.6 | 3.2 | 0.00 | 0.00 | 0.00 | 97 | 981.7 |
| 20260902075138 | 22 | 0 | 0.0 | 0.0 | 0.00 | 0.00 | 0.00 | 97 | 981.8 |
| 20260902074116 | 22 | 0 | 0.0 | 0.0 | 0.00 | 0.00 | 0.00 | 97 | 981.8 |
| 20260902073616 | 22 | 0 | 0.0 | 0.0 | 0.00 | 0.00 | 0.00 | 97 | 981.8 |
| 20260902073116 | 22 | 0 | 0.0 | 0.0 | 0.00 | 0.00 | 0.00 | 97 | 981.7 |
| 20260902072616 | 22 | 0 | 0.0 | 0.0 | 0.00 | 0.00 | 0.00 | 97 | 981.7 |
| 20260902072116 | 22 | 0 | 0.0 | 0.0 | 0.00 | 0.00 | 0.00 | 97 | 981.7 |
| 20260902071054 | 22 | 0 | 0.0 | 0.0 | 0.00 | 0.00 | 0.00 | 97 | 981.7 |
| 20260902070554 | 22 | 0 | 0.0 | 0.0 | 0.00 | 0.00 | 0.00 | 97 | 981.7 |
| 20260902070054 | 22 | 0 | 0.0 | 0.0 | 0.00 | 0.00 | 0.00 | 97 | 981.8 |
| 20260902065032 | 22 | 123 | 1.6 | 3.2 | 0.00 | 0.00 | 0.00 | 97 | 981.9 |
| 20260902064532 | 22 | 0 | 0.0 | 0.0 | 0.00 | 0.00 | 0.00 | 97 | 981.9 |
| 20260902064032 | 22 | 0 | 0.0 | 0.0 | 0.00 | 0.00 | 0.00 | 97 | 981.8 |
| 20260902063532 | 22 | 0 | 0.0 | 0.0 | 0.00 | 0.00 | 0.00 | 97 | 982.0 |
| 20260902063031 | 22 | 0 | 0.0 | 0.0 | 0.00 | 0.00 | 0.00 | 97 | 982.1 |
| 20260902062531 | 22 | 0 | 0.0 | 0.0 | 0.00 | 0.00 | 0.00 | 97 | 982.0 |
| 20260902062031 | 22 | 134 | 1.6 | 3.2 | 0.00 | 0.00 | 0.00 | 97 | 982.0 |
| 20260902061009 | 22 | 0 | 0.0 | 0.0 | 0.00 | 0.00 | 0.00 | 96 | 982.1 |
| 20260902060509 | 22 | 0 | 0.0 | 0.0 | 0.00 | 0.00 | 0.00 | 96 | 982.2 |
| 20260902060009 | 22 | 135 | 1.6 | 3.2 | 0.00 | 0.00 | 0.00 | 96 | 982.1 |
| 20260902054947 | 22 | 136 | 1.6 | 1.6 | 0.00 | 0.00 | 0.00 | 96 | 982.2 |
| 20260902054447 | 22 | 0 | 0.0 | 0.0 | 0.00 | 0.00 | 0.00 | 96 | 982.3 |
| 20260902053947 | 22 | 133 | 1.6 | 3.2 | 0.00 | 0.00 | 0.00 | 96 | 982.2 |
| 20260902053446 | 22 | 0 | 0.0 | 0.0 | 0.00 | 0.00 | 0.00 | 96 | 982.3 |
| 20260902052946 | 22 | 0 | 0.0 | 0.0 | 0.00 | 0.00 | 0.00 | 96 | 982.3 |
| 20260902052446 | 22 | 0 | 0.0 | 0.0 | 0.00 | 0.00 | 0.00 | 96 | 982.3 |
| 20260902051424 | 22 | 0 | 0.0 | 0.0 | 0.00 | 0.00 | 0.00 | 96 | 982.2 |
| 20260902050403 | 22 | 0 | 0.0 | 0.0 | 0.00 | 0.00 | 0.00 | 96 | 982.1 |
| 20260902045902 | 22 | 0 | 0.0 | 0.0 | 0.00 | 0.00 | 0.00 | 96 | 982.1 |
| 20260902045402 | 22 | 139 | 1.6 | 3.2 | 0.00 | 0.00 | 0.00 | 96 | 982.0 |
| 20260902044902 | 22 | 0 | 0.0 | 0.0 | 0.00 | 0.00 | 0.00 | 95 | 982.1 |
| 20260902044402 | 22 | 0 | 0.0 | 0.0 | 0.00 | 0.00 | 0.00 | 95 | 982.1 |
| 20260902043901 | 23 | 0 | 0.0 | 0.0 | 0.00 | 0.00 | 0.00 | 95 | 982.2 |
| 20260902043401 | 23 | 0 | 0.0 | 0.0 | 0.00 | 0.00 | 0.00 | 95 | 982.2 |
| 20260902042901 | 23 | 0 | 0.0 | 0.0 | 0.00 | 0.00 | 0.00 | 95 | 982.2 |
| 20260902041839 | 22 | 151 | 3.2 | 3.2 | 0.00 | 0.00 | 0.00 | 95 | 982.1 |
| 20260902041339 | 22 | 158 | 1.6 | 3.2 | 0.00 | 0.00 | 0.00 | 95 | 982.1 |
| 20260902040839 | 23 | 0 | 0.0 | 0.0 | 0.00 | 0.00 | 0.00 | 95 | 982.1 |
| 20260902035818 | 23 | 0 | 0.0 | 0.0 | 0.00 | 0.00 | 0.00 | 95 | 981.9 |
| 20260902035317 | 23 | 0 | 0.0 | 0.0 | 0.00 | 0.00 | 0.00 | 95 | 982.0 |
| 20260902034817 | 23 | 0 | 0.0 | 0.0 | 0.00 | 0.00 | 0.00 | 95 | 982.0 |
| 20260902033756 | 23 | 162 | 3.2 | 3.2 | 0.00 | 0.00 | 0.00 | 95 | 982.0 |
| 20260902033255 | 23 | 0 | 0.0 | 0.0 | 0.00 | 0.00 | 0.00 | 95 | 982.0 |
| 20260902032755 | 23 | 0 | 0.0 | 0.0 | 0.00 | 0.00 | 0.00 | 95 | 982.0 |
| 20260902032255 | 23 | 0 | 0.0 | 0.0 | 0.00 | 0.00 | 0.00 | 95 | 982.0 |
| 20260902031754 | 23 | 0 | 0.0 | 0.0 | 0.00 | 0.00 | 0.00 | 95 | 981.9 |
| 20260902031254 | 23 | 0 | 0.0 | 0.0 | 0.00 | 0.00 | 0.00 | 95 | 981.9 |
| 20260902030753 | 23 | 0 | 0.0 | 0.0 | 0.00 | 0.00 | 0.00 | 95 | 982.0 |
| 20260902030253 | 23 | 220 | 1.6 | 3.2 | 0.00 | 0.00 | 0.00 | 95 | 982.0 |
| 20260902025753 | 23 | 161 | 1.6 | 3.2 | 0.00 | 0.00 | 0.00 | 95 | 982.0 |
| 20260902025252 | 23 | 0 | 0.0 | 0.0 | 0.00 | 0.00 | 0.00 | 95 | 982.0 |
| 20260902024751 | 23 | 0 | 0.0 | 0.0 | 0.00 | 0.00 | 0.00 | 94 | 982.0 |
| 20260902024251 | 23 | 146 | 3.2 | 3.2 | 0.00 | 0.00 | 0.00 | 95 | 981.9 |
| 20260902023751 | 23 | 138 | 3.2 | 4.8 | 0.00 | 0.00 | 0.00 | 95 | 981.9 |
| 20260902022730 | 23 | 0 | 0.0 | 0.0 | 0.00 | 0.00 | 0.00 | 95 | 982.0 |
| 20260902022229 | 23 | 0 | 0.0 | 0.0 | 0.00 | 0.00 | 0.00 | 95 | 981.9 |
| 20260902021729 | 23 | 0 | 0.0 | 0.0 | 0.00 | 0.00 | 0.00 | 95 | 981.9 |
| 20260902021229 | 23 | 0 | 0.0 | 0.0 | 0.00 | 0.00 | 0.00 | 95 | 981.9 |
| 20260902020729 | 23 | 0 | 0.0 | 0.0 | 0.00 | 0.00 | 0.00 | 95 | 981.9 |
| 20260902020228 | 23 | 175 | 3.2 | 3.2 | 0.00 | 0.00 | 0.00 | 94 | 981.8 |
| 20260902015728 | 24 | 0 | 0.0 | 0.0 | 0.00 | 0.00 | 0.00 | 94 | 981.8 |
| 20260902015227 | 24 | 0 | 0.0 | 0.0 | 0.00 | 0.00 | 0.00 | 94 | 981.8 |
| 20260902014727 | 24 | 0 | 0.0 | 0.0 | 0.00 | 0.00 | 0.00 | 94 | 981.7 |
| 20260902014227 | 24 | 0 | 0.0 | 0.0 | 0.00 | 0.00 | 0.00 | 94 | 981.8 |
| 20260902013726 | 24 | 0 | 0.0 | 0.0 | 0.00 | 0.00 | 0.00 | 94 | 981.7 |
| 20260902012143 | 24 | 0 | 0.0 | 0.0 | 0.00 | 0.00 | 0.00 | 94 | 981.5 |
| 20260902011121 | 25 | 0 | 0.0 | 0.0 | 0.00 | 0.00 | 0.00 | 93 | 981.4 |
| 20260902010620 | 25 | 166 | 3.2 | 4.8 | 0.00 | 0.00 | 0.00 | 93 | 981.2 |
| 20260902010120 | 25 | 183 | 3.2 | 3.2 | 0.00 | 0.00 | 0.00 | 93 | 981.2 |
| 20260902005619 | 25 | 139 | 1.6 | 3.2 | 0.00 | 0.00 | 0.00 | 93 | 981.2 |
| 20260902005119 | 25 | 55 | 1.6 | 3.2 | 0.00 | 0.00 | 0.00 | 93 | 981.1 |
| 20260902003536 | 25 | 0 | 0.0 | 0.0 | 0.00 | 0.00 | 0.00 | 92 | 981.1 |
| 20260902003036 | 25 | 146 | 1.6 | 3.2 | 0.00 | 0.00 | 0.00 | 92 | 980.9 |
| 20260902002536 | 26 | 208 | 1.6 | 1.6 | 0.00 | 0.00 | 0.00 | 91 | 981.0 |
| 20260902002036 | 26 | 0 | 0.0 | 0.0 | 0.00 | 0.00 | 0.00 | 91 | 981.1 |
| 20260902001014 | 26 | 147 | 3.2 | 4.8 | 0.00 | 0.00 | 0.00 | 90 | 981.2 |
| 20260902000514 | 26 | 191 | 1.6 | 1.6 | 0.00 | 0.00 | 0.00 | 90 | 981.2 |
| 20260901235452 | 26 | 203 | 1.6 | 3.2 | 0.00 | 0.00 | 0.00 | 89 | 981.2 |
| 20260901234952 | 26 | 244 | 3.2 | 3.2 | 0.00 | 0.00 | 0.00 | 88 | 981.2 |
| 20260901234451 | 27 | 239 | 3.2 | 4.8 | 0.00 | 0.00 | 0.00 | 88 | 981.3 |
| 20260901233951 | 27 | 281 | 1.6 | 3.2 | 0.00 | 0.00 | 0.00 | 88 | 981.3 |
| 20260901233451 | 27 | 189 | 3.2 | 4.8 | 0.00 | 0.00 | 0.00 | 87 | 981.3 |
| 20260901232951 | 27 | 169 | 1.6 | 4.8 | 0.00 | 0.00 | 0.00 | 86 | 981.3 |
| 20260901232450 | 28 | 202 | 1.6 | 3.2 | 0.00 | 0.00 | 0.00 | 86 | 981.2 |
| 20260901231949 | 28 | 219 | 1.6 | 3.2 | 0.00 | 0.00 | 0.00 | 86 | 981.3 |
| 20260901231449 | 28 | 255 | 4.8 | 4.8 | 0.00 | 0.00 | 0.00 | 85 | 981.3 |
| 20260901230427 | 29 | 274 | 3.2 | 8.0 | 0.00 | 0.00 | 0.00 | 82 | 981.4 |
| 20260901225926 | 29 | 215 | 4.8 | 6.4 | 0.00 | 0.00 | 0.00 | 81 | 981.4 |
| 20260901225426 | 29 | 260 | 1.6 | 3.2 | 0.00 | 0.00 | 0.00 | 82 | 981.2 |
| 20260901224926 | 29 | 181 | 4.8 | 6.4 | 0.00 | 0.00 | 0.00 | 81 | 981.2 |
| 20260901224426 | 29 | 267 | 1.6 | 4.8 | 0.00 | 0.00 | 0.00 | 80 | 981.2 |
| 20260901223925 | 29 | 238 | 6.4 | 9.7 | 0.00 | 0.00 | 0.00 | 81 | 981.2 |
| 20260901223425 | 30 | 197 | 3.2 | 4.8 | 0.00 | 0.00 | 0.00 | 80 | 981.2 |
| 20260901222925 | 30 | 259 | 4.8 | 6.4 | 0.00 | 0.00 | 0.00 | 80 | 981.2 |
| 20260901222425 | 29 | 253 | 4.8 | 9.7 | 0.00 | 0.00 | 0.00 | 81 | 981.2 |
| 20260901221925 | 29 | 272 | 8.0 | 11.3 | 0.00 | 0.00 | 0.00 | 81 | 981.2 |
| 20260901221424 | 30 | 265 | 9.7 | 14.5 | 0.00 | 0.00 | 0.00 | 81 | 981.2 |
| 20260901220924 | 29 | 247 | 6.4 | 9.7 | 0.00 | 0.00 | 0.00 | 81 | 981.1 |
| 20260901220424 | 29 | 272 | 8.0 | 14.5 | 0.00 | 0.00 | 0.00 | 82 | 981.1 |
| 20260901215402 | 30 | 275 | 12.9 | 17.7 | 0.00 | 0.00 | 0.00 | 80 | 981.1 |
| 20260901214902 | 30 | 274 | 8.0 | 12.9 | 0.00 | 0.00 | 0.00 | 77 | 981.2 |
| 20260901214401 | 30 | 235 | 3.2 | 4.8 | 0.00 | 0.00 | 0.00 | 78 | 981.1 |
| 20260901213340 | 30 | 191 | 4.8 | 4.8 | 0.00 | 0.00 | 0.00 | 76 | 981.1 |
| 20260901212840 | 30 | 212 | 3.2 | 4.8 | 0.00 | 0.00 | 0.00 | 76 | 981.1 |
| 20260901212340 | 31 | 173 | 3.2 | 4.8 | 0.00 | 0.00 | 0.00 | 74 | 981.1 |
| 20260901211839 | 31 | 145 | 3.2 | 4.8 | 0.00 | 0.00 | 0.00 | 74 | 981.0 |
| 20260901210818 | 31 | 141 | 4.8 | 6.4 | 0.00 | 0.00 | 0.00 | 75 | 981.0 |
| 20260901210318 | 31 | 144 | 1.6 | 4.8 | 0.00 | 0.00 | 0.00 | 75 | 981.0 |
| 20260901205817 | 31 | 190 | 3.2 | 4.8 | 0.00 | 0.00 | 0.00 | 74 | 981.0 |
| 20260901205317 | 30 | 228 | 1.6 | 4.8 | 0.00 | 0.00 | 0.00 | 75 | 981.0 |
| 20260901204817 | 31 | 156 | 1.6 | 4.8 | 0.00 | 0.00 | 0.00 | 75 | 981.0 |
| 20260901204317 | 31 | 262 | 3.2 | 4.8 | 0.00 | 0.00 | 0.00 | 74 | 981.1 |
| 20260901203816 | 31 | 304 | 1.6 | 3.2 | 0.00 | 0.00 | 0.00 | 74 | 981.1 |
| 20260901203315 | 30 | 264 | 3.2 | 4.8 | 0.00 | 0.00 | 0.00 | 74 | 981.1 |
| 20260901202814 | 30 | 110 | 4.8 | 6.4 | 0.00 | 0.00 | 0.00 | 76 | 981.1 |
| 20260901202314 | 30 | 49 | 3.2 | 4.8 | 0.00 | 0.00 | 0.00 | 73 | 981.1 |
| 20260901201814 | 30 | 265 | 4.8 | 6.4 | 0.00 | 0.00 | 0.00 | 73 | 981.1 |
| 20260901201314 | 30 | 259 | 3.2 | 4.8 | 0.00 | 0.00 | 0.00 | 73 | 981.1 |
| 20260901200813 | 30 | 101 | 1.6 | 3.2 | 0.00 | 0.00 | 0.00 | 75 | 981.1 |
| 20260901200313 | 30 | 258 | 1.6 | 3.2 | 0.00 | 0.00 | 0.00 | 75 | 981.1 |
| 20260901195252 | 30 | 52 | 3.2 | 6.4 | 0.00 | 0.00 | 0.00 | 76 | 981.3 |
| 20260901194751 | 30 | 315 | 8.0 | 11.3 | 0.00 | 0.00 | 0.00 | 77 | 981.3 |
| 20260901194251 | 30 | 264 | 3.2 | 6.4 | 0.00 | 0.00 | 0.00 | 76 | 981.3 |
| 20260901193751 | 30 | 285 | 3.2 | 4.8 | 0.00 | 0.00 | 0.00 | 75 | 981.3 |
| 20260901193250 | 30 | 248 | 3.2 | 4.8 | 0.00 | 0.00 | 0.00 | 75 | 981.3 |